Track FENGYUN 1B now! 10-day predictions FENGYUN 1B is classified as:
1 20788U 90081A 21020.93628729 .00000339 00000-0 24629-3 0 9995 2 20788 98.7943 25.8877 0016672 75.3681 284.9333 14.02718584554877